Tracking 30923 objects as of 1-Jul-2025
HD Live streaming from Space Station
objects crossing your sky now

STARLINK-33792

Track STARLINK-33792 now!
10-day predictions
STARLINK-33792 is classified as:


NORAD ID: 63506
Int'l Code: 2025-071P
Perigee: 453.5 km
Apogee: 455.4 km
Inclination: 53.2 °
Period: 93.5 minutes
Semi major axis: 6825 km
RCS: Unknown
Launch date: April 7, 2025
Source: United States (US)
Launch site: AIR FORCE WESTERN TEST RANGE (AFWTR)
Your satellite tracking list
CZ-2D DEB
Track 1 satellite(s)




NASA's NSSDC Master Catalog

Two Line Element Set (TLE):
1 63506U 25071P   25181.91668981  .00035364  00000-0  89069-3 0  9996
2 63506  53.1581 230.1026 0001414  86.2912 222.8095 15.39595411 14159
Source of the keplerian elements: AFSPC